FW7044 Weather Reports


time (UTC)temp
C
wind
direction
speed
KPH
gust
KPH
rain 1hr
cm
rain 24hr
cm
rain mn
cm
humidity
%
barometer
mb
20260505122214 22 313 0.0 0.0 0.00 0.00 0.00 97 1017.1
20260505121710 22 303 1.6 1.6 0.00 0.00 0.00 99 1017.1
20260505121207 21 322 0.0 0.0 0.00 0.00 0.00 99 1017.1
20260505120703 21 339 0.0 0.0 0.00 0.00 0.00 99 1016.9
20260505120159 21 336 0.0 0.0 0.00 0.00 0.00 99 1016.7
20260505115652 21 337 0.0 0.0 0.00 0.00 0.00 99 1016.5
20260505115150 21 339 0.0 0.0 0.00 0.00 0.00 99 1016.7
20260505114642 20 342 0.0 0.0 0.00 0.00 0.00 99 1016.5
20260505114138 20 342 0.0 0.0 0.00 0.00 0.00 99 1016.4
20260505113635 19 336 0.0 0.0 0.00 0.00 0.00 99 1016.4
20260505113131 19 336 0.0 0.0 0.00 0.00 0.00 99 1016.3
20260505112627 18 336 0.0 0.0 0.00 0.00 0.00 99 1016.3
20260505112126 18 336 0.0 0.0 0.00 0.00 0.00 99 1016.1
20260505111620 18 336 0.0 0.0 0.00 0.00 0.00 99 1016.0
20260505111116 18 336 0.0 0.0 0.00 0.00 0.00 99 1016.1
20260505110612 18 336 0.0 0.0 0.00 0.00 0.00 99 1015.9
20260505110109 18 336 0.0 0.0 0.00 0.00 0.00 99 1015.8
20260505102045 18 336 0.0 0.0 0.00 0.00 0.00 99 1015.7
20260505101544 18 336 0.0 0.0 0.00 0.00 0.00 99 1015.6
20260505101039 18 336 0.0 0.0 0.00 0.00 0.00 99 1015.6
20260505100536 18 336 0.0 0.0 0.00 0.00 0.00 99 1015.5
20260505100033 18 336 0.0 0.0 0.00 0.00 0.00 99 1015.4
20260505095529 18 336 0.0 0.0 0.00 0.00 0.00 99 1015.2
20260505095026 18 336 0.0 0.0 0.00 0.00 0.00 99 1015.1
20260505094522 18 336 0.0 0.0 0.00 0.00 0.00 99 1015.4
20260505094018 18 336 0.0 0.0 0.00 0.00 0.00 99 1015.3
20260505093515 18 336 0.0 0.0 0.00 0.00 0.00 99 1015.0
20260505093013 18 336 0.0 0.0 0.00 0.00 0.00 99 1015.0
20260505092510 18 336 0.0 0.0 0.00 0.00 0.00 99 1015.1
20260505092008 18 336 0.0 0.0 0.00 0.00 0.00 99 1015.0
20260505091505 18 336 0.0 0.0 0.00 0.00 0.00 99 1015.2
20260505091003 18 336 0.0 0.0 0.00 0.00 0.00 99 1015.1
20260505090500 18 336 0.0 0.0 0.00 0.00 0.00 99 1014.9
20260505085958 18 336 0.0 0.0 0.00 0.00 0.00 99 1015.0
20260505085456 18 336 0.0 0.0 0.00 0.00 0.00 99 1015.0
20260505084954 18 336 0.0 0.0 0.00 0.00 0.00 99 1015.1
20260505084452 18 336 0.0 0.0 0.00 0.00 0.00 99 1014.8
20260505083949 18 336 0.0 0.0 0.00 0.00 0.00 99 1015.1
20260505083446 18 336 0.0 0.0 0.00 0.00 0.00 99 1015.1
20260505082943 18 336 0.0 0.0 0.00 0.00 0.00 99 1015.0
20260505082438 18 336 0.0 0.0 0.00 0.00 0.00 99 1014.8
20260505081936 18 336 0.0 0.0 0.00 0.00 0.00 99 1014.8
20260505081432 18 336 0.0 0.0 0.00 0.00 0.00 99 1015.0
20260505080929 18 336 0.0 0.0 0.00 0.00 0.00 99 1014.8
20260505080425 18 336 0.0 0.0 0.00 0.00 0.00 99 1015.0
20260505075920 18 336 0.0 0.0 0.00 0.00 0.00 99 1015.1
20260505075418 18 336 0.0 0.0 0.00 0.00 0.00 99 1015.0
20260505074915 18 336 0.0 0.0 0.00 0.00 0.00 99 1014.8
20260505074412 18 336 0.0 0.0 0.00 0.00 0.00 99 1014.9
20260505073909 18 334 0.0 0.0 0.00 0.00 0.00 99 1015.1
20260505073407 18 334 0.0 0.0 0.00 0.00 0.00 99 1015.2
20260505072904 18 334 0.0 0.0 0.00 0.00 0.00 99 1015.1
20260505072400 18 334 0.0 0.0 0.00 0.00 0.00 99 1015.3
20260505071856 18 334 0.0 0.0 0.00 0.00 0.00 99 1015.0
20260505071352 18 334 0.0 0.0 0.00 0.00 0.00 99 1015.3
20260505070851 18 334 0.0 0.0 0.00 0.00 0.00 99 1015.3
20260505070347 18 334 0.0 0.0 0.00 0.00 0.00 99 1015.4
20260505065842 18 334 0.0 0.0 0.00 0.00 0.00 99 1015.3
20260505065339 18 334 0.0 0.0 0.00 0.00 0.00 99 1015.4
20260505064836 19 334 0.0 0.0 0.00 0.00 0.00 99 1015.4
20260505064333 18 334 0.0 0.0 0.00 0.00 0.00 99 1015.6
20260505063832 19 334 0.0 0.0 0.00 0.00 0.00 99 1015.5
20260505063327 19 334 0.0 0.0 0.00 0.00 0.00 99 1015.5
20260505062824 19 334 0.0 0.0 0.00 0.00 0.00 99 1015.7
20260505062322 18 334 0.0 0.0 0.00 0.00 0.00 99 1015.8
20260505061818 19 334 0.0 0.0 0.00 0.00 0.00 99 1015.9
20260505061316 19 334 0.0 0.0 0.00 0.00 0.00 99 1015.5
20260505060814 19 334 0.0 0.0 0.00 0.00 0.00 99 1015.5
20260505060310 19 334 0.0 0.0 0.00 0.00 0.00 99 1015.6
20260505055806 19 334 0.0 0.0 0.00 0.00 0.00 99 1015.9
20260505055303 19 334 0.0 0.0 0.00 0.00 0.00 99 1016.2
20260505054800 19 334 0.0 0.0 0.00 0.00 0.00 99 1016.2
20260505054257 19 334 0.0 0.0 0.00 0.00 0.00 99 1016.2
20260505053755 19 334 0.0 0.0 0.00 0.00 0.00 99 1016.5
20260505053252 19 334 0.0 0.0 0.00 0.00 0.00 99 1016.5
20260505052749 19 334 0.0 0.0 0.00 0.00 0.00 99 1016.3
20260505052246 19 334 0.0 0.0 0.00 0.00 0.00 99 1016.2
20260505051742 19 334 0.0 0.0 0.00 0.00 0.00 99 1016.4
20260505051241 20 334 0.0 0.0 0.00 0.00 0.00 98 1016.2
20260505050738 19 334 0.0 0.0 0.00 0.00 0.00 98 1016.4
20260505050237 19 334 0.0 0.0 0.00 0.00 0.00 98 1016.2
20260505041706 20 333 0.0 0.0 0.00 0.00 0.00 97 1016.6
20260505041203 20 333 0.0 0.0 0.00 0.00 0.00 97 1016.7
20260505040700 20 333 0.0 0.0 0.00 0.00 0.00 97 1016.5
20260505040158 20 333 0.0 0.0 0.00 0.00 0.00 96 1016.8
20260505035654 20 333 0.0 0.0 0.00 0.00 0.00 96 1016.5
20260505035150 20 333 0.0 0.0 0.00 0.00 0.00 96 1016.7
20260505034647 20 333 0.0 0.0 0.00 0.00 0.00 96 1016.9
20260505034144 20 333 0.0 0.0 0.00 0.00 0.00 96 1016.7
20260505033640 21 333 0.0 0.0 0.00 0.00 0.00 95 1016.8
20260505033139 21 333 0.0 0.0 0.00 0.00 0.00 95 1016.7
20260505032636 21 333 0.0 0.0 0.00 0.00 0.00 95 1016.8
20260505032132 21 333 0.0 0.0 0.00 0.00 0.00 95 1016.8
20260505031630 21 333 0.0 0.0 0.00 0.00 0.00 94 1016.8
20260505031126 21 333 0.0 0.0 0.00 0.00 0.00 94 1016.8
20260505030623 21 334 0.0 0.0 0.00 0.00 0.00 94 1016.7
20260505030119 21 333 0.0 0.0 0.00 0.00 0.00 93 1016.9
20260505025615 21 332 0.0 0.0 0.00 0.00 0.00 93 1016.9
20260505025114 21 333 0.0 0.0 0.00 0.00 0.00 93 1016.7
20260505024611 21 332 0.0 0.0 0.00 0.00 0.00 92 1016.7
20260505024108 21 332 0.0 0.0 0.00 0.00 0.00 92 1016.9
20260505023605 21 332 0.0 0.0 0.00 0.00 0.00 92 1016.8
20260505023102 21 332 0.0 0.0 0.00 0.00 0.00 92 1016.8
20260505022600 22 332 0.0 0.0 0.00 0.00 0.00 92 1016.9
20260505022057 22 332 0.0 0.0 0.00 0.00 0.00 91 1016.9
20260505021553 22 332 0.0 0.0 0.00 0.00 0.00 90 1017.0
20260505021050 22 333 0.0 0.0 0.00 0.00 0.00 90 1016.8
20260505020550 22 331 0.0 0.0 0.00 0.00 0.00 90 1016.6
20260505020048 22 331 0.0 0.0 0.00 0.00 0.00 89 1016.5
20260505015544 22 331 0.0 0.0 0.00 0.00 0.00 89 1016.7
20260505015041 22 355 0.0 0.0 0.00 0.00 0.00 89 1016.6
20260505014538 22 21 0.0 0.0 0.00 0.00 0.00 88 1016.3
20260505014035 22 357 0.0 0.0 0.00 0.00 0.00 88 1016.6
20260505013532 23 357 0.0 0.0 0.00 0.00 0.00 87 1016.7
20260505013030 23 353 0.0 0.0 0.00 0.00 0.00 87 1016.6
20260505012527 23 349 0.0 0.0 0.00 0.00 0.00 86 1016.8
20260505012024 23 81 0.0 0.0 0.00 0.00 0.00 85 1016.8
20260505011520 23 67 1.6 3.2 0.00 0.00 0.00 85 1016.6
20260505011017 23 80 1.6 1.6 0.00 0.00 0.00 84 1016.5
20260505010512 23 113 1.6 3.2 0.00 0.00 0.00 84 1016.6
20260505010009 23 21 0.0 0.0 0.00 0.00 0.00 84 1016.3
20260505005506 24 71 1.6 1.6 0.00 0.00 0.00 83 1016.4
20260505005004 24 70 3.2 4.8 0.00 0.00 0.00 83 1016.2
20260505004501 24 49 1.6 1.6 0.00 0.00 0.00 83 1016.4
20260505003957 24 126 1.6 3.2 0.00 0.00 0.00 82 1016.3
20260505003455 24 233 0.0 0.0 0.00 0.00 0.00 82 1016.3
20260505002950 24 82 1.6 3.2 0.00 0.00 0.00 82 1016.2
20260505002446 24 162 1.6 1.6 0.00 0.00 0.00 82 1016.1
20260505001945 24 72 0.0 1.6 0.00 0.00 0.00 82 1016.2
20260505001442 25 75 3.2 4.8 0.00 0.00 0.00 81 1016.1
20260505000939 25 203 6.4 8.0 0.00 0.00 0.00 81 1016.1
20260505000437 25 114 3.2 4.8 0.00 0.00 0.00 80 1016.0
20260504235934 25 148 4.8 8.0 0.00 0.00 0.00 79 1015.6
20260504235431 25 104 4.8 4.8 0.00 0.00 0.00 78 1015.6
20260504234927 25 343 4.8 4.8 0.00 0.00 0.00 77 1015.6
20260504234425 25 84 3.2 3.2 0.00 0.00 0.00 77 1015.7
20260504233921 25 97 3.2 3.2 0.00 0.00 0.00 77 1015.6
20260504233417 25 163 6.4 8.0 0.00 0.00 0.00 76 1015.7
20260504232914 25 30 1.6 3.2 0.00 0.00 0.00 75 1015.5
20260504232411 25 163 3.2 4.8 0.00 0.00 0.00 76 1015.5
20260504231908 25 115 4.8 4.8 0.00 0.00 0.00 75 1015.6
20260504231404 25 337 1.6 1.6 0.00 0.00 0.00 75 1015.4
20260504230900 25 7 1.6 3.2 0.00 0.00 0.00 75 1015.6
20260504230358 25 224 1.6 1.6 0.00 0.00 0.00 74 1015.5
20260504225857 25 32 3.2 4.8 0.00 0.00 0.00 74 1015.7
20260504225353 25 34 8.0 14.5 0.00 0.00 0.00 73 1015.6
20260504224850 25 74 3.2 8.0 0.00 0.00 0.00 74 1015.7
20260504224347 25 166 9.7 14.5 0.00 0.00 0.00 73 1015.6
20260504223843 25 3 4.8 9.7 0.00 0.00 0.00 74 1015.5
20260504223339 25 129 4.8 12.9 0.00 0.00 0.00 74 1015.8
20260504222836 25 29 1.6 3.2 0.00 0.00 0.00 74 1015.7
20260504222333 26 318 1.6 1.6 0.00 0.00 0.00 73 1015.7
20260504221831 25 10 1.6 3.2 0.00 0.00 0.00 74 1015.6
20260504221327 25 64 11.3 14.5 0.00 0.00 0.00 73 1015.5
20260504220825 25 75 3.2 4.8 0.00 0.00 0.00 74 1015.7
20260504220321 26 34 4.8 12.9 0.00 0.00 0.00 73 1015.5
20260504215819 26 62 3.2 3.2 0.00 0.00 0.00 72 1015.4
20260504215315 26 309 4.8 4.8 0.00 0.00 0.00 71 1015.5
20260504214811 26 18 3.2 8.0 0.00 0.00 0.00 72 1015.6
20260504214308 26 96 14.5 17.7 0.00 0.00 0.00 72 1015.6
20260504213805 26 93 4.8 4.8 0.00 0.00 0.00 72 1015.8
20260504213301 26 120 4.8 8.0 0.00 0.00 0.00 72 1015.8
20260504212759 26 74 8.0 11.3 0.00 0.00 0.00 71 1015.7
20260504212254 26 333 8.0 11.3 0.00 0.00 0.00 71 1015.5
20260504211752 27 109 8.0 11.3 0.00 0.00 0.00 69 1015.7
20260504211248 27 257 3.2 4.8 0.00 0.00 0.00 68 1015.7
20260504210746 27 267 6.4 11.3 0.00 0.00 0.00 67 1015.6
20260504210243 26 148 4.8 8.0 0.00 0.00 0.00 69 1015.8
20260504205739 26 179 4.8 8.0 0.00 0.00 0.00 69 1015.8
20260504205238 26 147 6.4 9.7 0.00 0.00 0.00 70 1015.7
20260504204735 27 82 6.4 11.3 0.00 0.00 0.00 68 1016.0
20260504204233 27 97 12.9 20.9 0.00 0.00 0.00 69 1015.9
20260504203733 26 122 9.7 12.9 0.00 0.00 0.00 71 1015.9
20260504203229 26 172 8.0 12.9 0.00 0.00 0.00 71 1016.0
20260504202724 26 105 6.4 8.0 0.00 0.00 0.00 71 1016.1
20260504202221 26 120 8.0 9.7 0.00 0.00 0.00 72 1016.0
20260504201718 26 83 9.7 12.9 0.00 0.00 0.00 72 1016.0
20260504201215 26 150 6.4 8.0 0.00 0.00 0.00 72 1016.0
20260504200713 26 154 8.0 11.3 0.00 0.00 0.00 72 1016.2
20260504200209 26 95 9.7 12.9 0.00 0.00 0.00 72 1016.1
20260504195705 26 114 12.9 16.1 0.00 0.00 0.00 72 1016.2
20260504195201 26 70 4.8 8.0 0.00 0.00 0.00 71 1016.2
20260504194658 26 91 3.2 4.8 0.00 0.00 0.00 72 1016.4
20260504194153 26 151 4.8 8.0 0.00 0.00 0.00 71 1016.4
20260504193651 26 346 4.8 4.8 0.00 0.00 0.00 71 1016.3
20260504193148 27 99 8.0 14.5 0.00 0.00 0.00 70 1016.6
20260504192646 27 173 0.0 1.6 0.00 0.00 0.00 69 1016.5
20260504192144 26 55 3.2 3.2 0.00 0.00 0.00 71 1016.5
20260504191642 27 113 3.2 11.3 0.00 0.00 0.00 72 1016.5
20260504191138 27 97 9.7 12.9 0.00 0.00 0.00 70 1016.5
20260504190634 27 58 11.3 14.5 0.00 0.00 0.00 68 1016.4
20260504190131 27 2 8.0 11.3 0.00 0.00 0.00 71 1016.5
20260504185628 26 350 12.9 14.5 0.00 0.00 0.00 73 1016.8
20260504185125 25 359 3.2 4.8 0.00 0.00 0.00 75 1016.9
20260504184620 26 97 4.8 4.8 0.00 0.00 0.00 75 1017.0
20260504184115 26 88 12.9 24.1 0.00 0.00 0.00 73 1017.1
20260504183613 26 105 11.3 17.7 0.00 0.00 0.00 71 1017.2
20260504183111 26 63 6.4 8.0 0.00 0.00 0.00 71 1017.2
20260504182608 26 29 1.6 3.2 0.00 0.00 0.00 73 1017.2
20260504182105 26 118 4.8 8.0 0.00 0.00 0.00 73 1017.2
20260504181602 26 330 3.2 8.0 0.00 0.00 0.00 72 1017.3
20260504181100 27 11 3.2 4.8 0.00 0.00 0.00 71 1017.2
20260504180559 27 117 12.9 14.5 0.00 0.00 0.00 71 1017.3
20260504180057 26 72 4.8 4.8 0.00 0.00 0.00 72 1017.4
20260504175554 26 334 6.4 9.7 0.00 0.00 0.00 73 1017.4
20260504175051 27 50 11.3 17.7 0.00 0.00 0.00 72 1017.3
20260504174549 27 71 6.4 11.3 0.00 0.00 0.00 69 1017.4
20260504174045 26 121 3.2 3.2 0.00 0.00 0.00 72 1017.1
20260504173542 26 59 4.8 8.0 0.00 0.00 0.00 74 1017.5
20260504173040 26 358 1.6 3.2 0.00 0.00 0.00 73 1017.6
20260504172536 26 102 8.0 12.9 0.00 0.00 0.00 72 1017.6
20260504172032 26 62 3.2 4.8 0.00 0.00 0.00 72 1017.3
20260504171530 26 226 4.8 9.7 0.00 0.00 0.00 71 1017.6
20260504171026 26 17 4.8 8.0 0.00 0.00 0.00 70 1017.2
20260504170522 27 48 6.4 11.3 0.00 0.00 0.00 71 1017.6
20260504160442 27 92 6.4 8.0 0.00 0.00 0.00 70 1017.8
20260504150906 26 85 3.2 4.8 0.00 0.00 0.00 73 1018.0
20260504150403 26 344 6.4 11.3 0.00 0.00 0.00 73 1017.8
20260504141333 26 347 3.2 3.2 0.00 0.00 0.00 72 1017.3
20260504140829 26 20 3.2 3.2 0.00 0.00 0.00 72 1017.3
20260504140325 26 53 6.4 12.9 0.00 0.00 0.00 70 1017.3
20260504130754 25 54 1.6 1.6 0.00 0.00 0.00 74 1016.9
20260504130250 25 49 3.2 3.2 0.00 0.00 0.00 73 1016.9